Caribou, ME

5:51 PM EDT on April 25, 2017 (GMT -0400)
Caribou Municipal

Weather History for KCAR - June, 2014

Change the Weather History Date:

Monday, June 9, 2014

  Actual Average Record
Temperature  
Mean Temperature 68 °F 59 °F  
Max Temperature 80 °F 70 °F 89 °F (1984)
Min Temperature 56 °F 48 °F 32 °F (1951)
Degree Days  
Heating Degree Days 0 7  
Month to date heating degree days 20 70  
Since 1 June heating degree days 20 70  
Since 1 July heating degree days 9432 9259  
Cooling Degree Days 3 1  
Month to date cooling degree days 11 6  
Year to date cooling degree days 14 11  
Since 1 June cooling degree days 11 6  
Growing Degree Days 18 (Base 50)    
Moisture  
Dew Point 54 °F    
Average Humidity 65    
Maximum Humidity 93    
Minimum Humidity 36    
Precipitation  
Precipitation 0.00 in 0.11 in 2.00 in (2011)
Month to date precipitation 0.56 0.96  
Year to date precipitation 17.76 14.38  
Snow  
Snow 0.00 in 0.00 in 0.00 in (2002)
Month to date snowfall 0.0 0.0  
Since 1 June snowfall 0.0 0.0  
Since 1 July snowfall 150.7 108.7  
Snow Depth 0.00 in    
Sea Level Pressure  
Sea Level Pressure 29.89 in    
Wind  
Wind Speed 7 mph (NNW)    
Max Wind Speed 16 mph    
Max Gust Speed 24 mph    
Visibility 10 miles    
Events      
T = Trace of Precipitation, MM = Missing Value Source: NWS Daily Summary

Daily Weather History Graph

Daily Weather History Graph

Search for Another Location

Airport or City:

Trip Planner

Search our weather history database for the weather conditions in past years. The results will help you decide how hot, cold, wet, or windy it might be!

Date:

Astronomy

Jun. 09, 2014 Rise Set
Actual Time 4:37 AM EDT 8:25 PM EDT
Civil Twilight 3:58 AM EDT 9:04 PM EDT
Nautical Twilight 3:05 AM EDT 9:57 PM EDT
Astronomical Twilight 1:49 AM EDT 11:14 PM EDT
Moon 4:29 PM EDT (6/9) 2:17 AM EDT (6/9)
Length of Visible Light 17h 05m
Length of Day
15h 47m
Waxing Gibbous, 85% of the Moon is Illuminated
Jun 9
Waxing Gibbous
Jun 13
Full
Jun 19
Last Quarter
Jun 27
New
Jul 5
First Quarter

Hourly Weather History & Observations

Time (EDT) Temp. Dew Point Humidity Pressure Visibility Wind Dir Wind Speed Gust Speed Precip Events Conditions
12:54 AM 62.1 °F 57.0 °F 84% 29.83 in 10.0 mi NNE 4.6 mph - N/A   Partly Cloudy
1:54 AM 62.1 °F 57.0 °F 84% 29.82 in 10.0 mi Calm Calm - N/A   Clear
2:54 AM 59.0 °F 55.9 °F 90% 29.82 in 10.0 mi Calm Calm - N/A   Partly Cloudy
3:54 AM 57.9 °F 55.0 °F 90% 29.83 in 10.0 mi NNE 4.6 mph - N/A   Clear
4:54 AM 57.0 °F 54.0 °F 89% 29.83 in 10.0 mi Calm Calm - N/A   Clear
5:54 AM 57.9 °F 55.9 °F 93% 29.86 in 10.0 mi WSW 3.5 mph - N/A   Clear
6:54 AM 63.0 °F 57.0 °F 81% 29.86 in 10.0 mi Calm Calm - N/A   Clear
7:54 AM 66.0 °F 59.0 °F 78% 29.88 in 10.0 mi Calm Calm - N/A   Clear
8:54 AM 72.0 °F 55.9 °F 57% 29.88 in 10.0 mi North 8.1 mph - N/A   Clear
9:54 AM 73.9 °F 57.0 °F 55% 29.88 in 10.0 mi WNW 6.9 mph - N/A   Clear
11:54 AM 79.0 °F 57.0 °F 47% 29.88 in 10.0 mi North 12.7 mph - N/A   Scattered Clouds
12:54 PM 79.0 °F 57.9 °F 48% 29.88 in 10.0 mi NW 9.2 mph 17.3 mph N/A   Clear
1:54 PM 79.0 °F 57.9 °F 48% 29.88 in 10.0 mi NW 11.5 mph 19.6 mph N/A   Partly Cloudy
4:54 PM 79.0 °F 53.1 °F 40% 29.90 in 10.0 mi NNW 10.4 mph - N/A   Clear
5:54 PM 78.1 °F 53.1 °F 42% 29.91 in 10.0 mi North 9.2 mph - N/A   Clear
6:54 PM 75.0 °F 46.0 °F 36% 29.93 in 10.0 mi North 6.9 mph - N/A   Clear
7:54 PM 70.0 °F 43.0 °F 38% 29.95 in 10.0 mi NNW 6.9 mph - N/A   Clear
8:54 PM 66.9 °F 48.0 °F 51% 29.96 in 10.0 mi NNW 8.1 mph - N/A   Clear
9:54 PM 64.9 °F 51.1 °F 61% 29.98 in 10.0 mi NNW 6.9 mph - N/A   Clear
10:54 PM 62.1 °F 51.1 °F 67% 29.99 in 10.0 mi North 6.9 mph - N/A   Clear
11:54 PM 59.0 °F 50.0 °F 72% 30.01 in 10.0 mi North 5.8 mph - N/A   Clear